Location: Newark
(51.5033°N, 0.1199°W)
Time: 16:25:25
(UTC+00:00)

PicSat - Visible Passes

Search period start: 18 September 2019 00:00
Search period end: 28 September 2019 00:00
Orbit: 487 x 498 km, 97.5° (Epoch: 18 September)

Date Brightness Start Highest point End Pass type
(mag) Time Alt. Az. Time Alt. Az. Time Alt. Az.
18 Sep ? 20:39:18 19° NNE 20:39:18 19° NNE 20:40:57 10° N visible
18 Sep ? 22:13:50 16° NW 22:13:50 16° NW 22:14:45 10° NNW visible
19 Sep ? 20:17:20 14° NE 20:17:20 14° NE 20:18:32 10° NNE visible
19 Sep ? 21:51:52 20° NNW 21:51:52 20° NNW 21:53:06 10° NNW visible
20 Sep ? 21:29:54 21° N 21:29:54 21° N 21:31:16 10° NNW visible
21 Sep ? 21:07:56 21° N 21:07:56 21° N 21:09:18 10° N visible
22 Sep ? 20:45:58 18° NNE 20:45:58 18° NNE 20:47:11 10° N visible
22 Sep ? 22:20:30 12° NW 22:20:30 12° NW 22:20:48 10° NW visible
23 Sep ? 20:23:59 14° NNE 20:23:59 14° NNE 20:24:50 10° NNE visible
23 Sep ? 21:58:31 14° NNW 21:58:31 14° NNW 21:59:11 10° NNW visible
24 Sep ? 21:36:33 16° NNW 21:36:33 16° NNW 21:37:23 10° NNW visible
25 Sep ? 21:14:34 16° N 21:14:34 16° N 21:15:26 10° N visible
26 Sep ? 20:52:35 15° N 20:52:35 15° N 20:53:21 10° N visible
27 Sep ? 20:30:36 12° NNE 20:30:36 12° NNE 20:31:05 10° NNE visible
27 Sep ? 22:05:08 10° NNW 22:05:08 10° NNW 22:05:13 10° NNW visible
